Kezdőlap
METAR-TAF:

METAR-TAF

Repülőterek :

Waupaca Municipal Airport

Waupaca, Wisconsin, Amerikai Egyesült Államok

földrajzi szélesség: 44-20-01N, földrajzi hosszúság: 089-00-55W, magasság: 252 m

Jelenlegi meteorológiai megfigyelések

A jelentés 15 perccel ezelõtt készült, 10:15 UTC
Szélcsend
Hőmérséklet 6°C
Páratartalom 93%
Légköri nyomás 1016 hPa
Látótávolság: 16.1 km
Derült ég

METAR: KPCZ 171015Z AUTO 00000KT 10SM CLR 06/05 A3001 RMK AO2 T00630051 PWINO

Idő: 05:30 (10:30 UTC)


TAF: hiányzik

Meteorológiai megfigyelések és előrejelzések több, mint 4000 repülőtéren (METAR és TAF jelentéseket).

A térképen piros és sárga pontok jelzik az elérhető meteorológiai állomásokat.

Mozgassa az egeret a pont fölött, hogy megjelenjen az állomás neve.

Azután kattintson az időjárási megfigyelések és előrejelzések megtekintéséhez.

A térkép megváltoztatása: kattintson a fekete keresztel jelölt zöld gombra ráközelítéshez, a vonallal jelölt zöld gombra távolításhoz, vagy a zöld nyilakra a szomszédos térképek eléréséhez.


METAR-TAF: